Time,TemperatureF,DewpointF,PressureIn,WindDirection,WindDirectionDegrees,WindSpeedMPH,WindSpeedGustMPH,Humidity,HourlyPrecipIn,Conditions,Clouds,dailyrainin,SoftwareType,DateUTC
2013-07-17 00:00:00,76.5,65.6,30.28,North,-999,-999.0,-999.0,69,-99.99,,,0.00,wxRedirect v1.1,2013-07-17 05:00:00,
2013-07-17 00:05:00,76.3,65.4,30.28,SSW,202,0.0,0.0,69,-99.99,,,0.00,wxRedirect v1.1,2013-07-17 05:05:00,
2013-07-17 00:11:00,76.1,65.2,30.28,SSW,202,0.0,0.0,69,-99.99,,,0.00,wxRedirect v1.1,2013-07-17 05:11:00,
2013-07-17 00:16:00,75.9,65.0,30.28,West,270,0.0,0.0,69,-99.99,,,0.00,wxRedirect v1.1,2013-07-17 05:16:00,
2013-07-17 00:21:00,75.9,65.0,30.29,West,270,0.0,0.0,69,-99.99,,,0.00,wxRedirect v1.1,2013-07-17 05:21:00,
2013-07-17 00:26:00,75.7,65.3,30.29,North,-999,-999.0,-999.0,70,-99.99,,,0.00,wxRedirect v1.1,2013-07-17 05:26:00,
2013-07-17 00:31:00,75.6,65.1,30.28,NNW,337,0.0,1.8,70,-99.99,,,0.00,wxRedirect v1.1,2013-07-17 05:31:00,
2013-07-17 00:37:00,75.4,64.9,30.28,NNW,337,0.0,1.8,70,-99.99,,,0.00,wxRedirect v1.1,2013-07-17 05:37:00,
2013-07-17 00:42:00,75.4,64.9,30.29,NNW,337,0.0,0.0,74,-99.99,,,0.00,wxRedirect v1.1,2013-07-17 05:42:00,
2013-07-17 00:47:00,75.4,64.9,30.28,NNW,337,0.0,0.0,70,-99.99,,,0.00,wxRedirect v1.1,2013-07-17 05:47:00,
2013-07-17 00:53:00,75.2,65.2,30.28,NNW,337,0.0,0.0,71,-99.99,,,0.00,wxRedirect v1.1,2013-07-17 05:53:00,
2013-07-17 00:58:00,75.0,65.0,30.28,NNW,337,0.0,0.0,71,-99.99,,,0.00,wxRedirect v1.1,2013-07-17 05:58:00,
2013-07-17 01:05:00,74.8,64.8,30.28,NNW,337,0.0,0.0,71,-99.99,,,0.00,wxRedirect v1.1,2013-07-17 06:05:00,
2013-07-17 01:10:00,74.8,64.8,30.28,NNW,337,0.0,0.0,71,-99.99,,,0.00,wxRedirect v1.1,2013-07-17 06:10:00,
2013-07-17 01:16:00,74.7,65.0,30.28,NNW,337,0.0,0.0,72,-99.99,,,0.00,wxRedirect v1.1,2013-07-17 06:16:00,
2013-07-17 01:21:00,74.5,64.9,30.28,NNW,337,0.0,0.0,72,-99.99,,,0.00,wxRedirect v1.1,2013-07-17 06:21:00,
2013-07-17 01:26:00,74.5,64.9,30.27,NNW,337,0.0,0.0,72,-99.99,,,0.00,wxRedirect v1.1,2013-07-17 06:26:00,
2013-07-17 01:32:00,74.5,64.9,30.27,NNW,337,0.0,0.0,72,-99.99,,,0.00,wxRedirect v1.1,2013-07-17 06:32:00,
2013-07-17 01:37:00,74.3,64.7,30.27,NNW,337,0.0,0.0,72,-99.99,,,0.00,wxRedirect v1.1,2013-07-17 06:37:00,
2013-07-17 01:42:00,74.3,65.1,30.27,NNW,337,0.0,0.0,73,-99.99,,,0.00,wxRedirect v1.1,2013-07-17 06:42:00,
2013-07-17 01:48:00,74.1,64.9,30.27,NNW,337,0.0,0.0,73,-99.99,,,0.00,wxRedirect v1.1,2013-07-17 06:48:00,
2013-07-17 01:53:00,74.1,64.9,30.27,NNW,337,0.0,0.0,73,-99.99,,,0.00,wxRedirect v1.1,2013-07-17 06:53:00,
2013-07-17 01:58:00,73.9,64.8,30.27,NNW,337,0.0,0.0,73,-99.99,,,0.00,wxRedirect v1.1,2013-07-17 06:58:00,
2013-07-17 02:04:00,73.9,65.2,30.27,NNW,337,0.0,0.0,74,-99.99,,,0.00,wxRedirect v1.1,2013-07-17 07:04:00,
2013-07-17 02:09:00,73.9,65.2,30.27,NNW,337,0.0,0.0,74,-99.99,,,0.00,wxRedirect v1.1,2013-07-17 07:09:00,
2013-07-17 02:14:00,73.9,65.2,30.27,NNW,337,0.0,0.0,74,-99.99,,,0.00,wxRedirect v1.1,2013-07-17 07:14:00,
2013-07-17 02:20:00,73.9,65.2,30.27,NNW,337,0.0,0.0,74,-99.99,,,0.00,wxRedirect v1.1,2013-07-17 07:20:00,
2013-07-17 02:25:00,73.9,65.2,30.27,NNW,337,0.0,0.0,74,-99.99,,,0.00,wxRedirect v1.1,2013-07-17 07:25:00,
2013-07-17 02:30:00,73.9,65.2,30.27,NNW,337,0.0,0.0,74,-99.99,,,0.00,wxRedirect v1.1,2013-07-17 07:30:00,
2013-07-17 02:36:00,73.9,65.2,30.27,NNW,337,0.0,0.0,74,-99.99,,,0.00,wxRedirect v1.1,2013-07-17 07:36:00,
2013-07-17 02:41:00,73.8,65.0,30.27,NNW,337,0.0,0.0,74,-99.99,,,0.00,wxRedirect v1.1,2013-07-17 07:41:00,
2013-07-17 02:46:00,73.8,65.4,30.27,NNW,337,0.0,0.0,75,-99.99,,,0.00,wxRedirect v1.1,2013-07-17 07:46:00,
2013-07-17 02:52:00,73.8,65.4,30.27,NNW,337,0.0,0.0,75,-99.99,,,0.00,wxRedirect v1.1,2013-07-17 07:52:00,
2013-07-17 02:57:00,73.6,65.2,30.27,NNW,337,0.0,0.0,75,-99.99,,,0.00,wxRedirect v1.1,2013-07-17 07:57:00,
2013-07-17 03:02:00,73.6,65.2,30.27,NNW,337,0.0,0.0,75,-99.99,,,0.00,wxRedirect v1.1,2013-07-17 08:02:00,
2013-07-17 03:08:00,73.6,65.2,30.27,NNW,337,0.0,0.0,75,-99.99,,,0.00,wxRedirect v1.1,2013-07-17 08:08:00,
2013-07-17 03:13:00,73.4,65.0,30.27,NNW,337,0.0,0.0,75,-99.99,,,0.00,wxRedirect v1.1,2013-07-17 08:13:00,
2013-07-17 03:18:00,73.2,64.9,30.27,North,-999,-999.0,-999.0,75,-99.99,,,0.00,wxRedirect v1.1,2013-07-17 08:18:00,
2013-07-17 03:24:00,73.2,65.2,30.27,NNW,337,0.0,0.0,76,-99.99,,,0.00,wxRedirect v1.1,2013-07-17 08:24:00,
2013-07-17 03:29:00,73.2,65.2,30.27,NNW,337,0.0,0.0,76,-99.99,,,0.00,wxRedirect v1.1,2013-07-17 08:29:00,
2013-07-17 03:34:00,73.2,65.2,30.27,NNW,337,0.0,0.0,76,-99.99,,,0.00,wxRedirect v1.1,2013-07-17 08:34:00,
2013-07-17 03:40:00,73.2,65.6,30.27,NNW,337,0.0,0.0,77,-99.99,,,0.00,wxRedirect v1.1,2013-07-17 08:40:00,
2013-07-17 03:45:00,73.0,65.4,30.27,NNW,337,0.0,0.0,77,-99.99,,,0.00,wxRedirect v1.1,2013-07-17 08:45:00,
2013-07-17 03:50:00,73.0,65.4,30.27,NNW,337,0.0,0.0,77,-99.99,,,0.00,wxRedirect v1.1,2013-07-17 08:50:00,
2013-07-17 03:56:00,73.0,65.4,30.27,North,-999,-999.0,-999.0,77,-99.99,,,0.00,wxRedirect v1.1,2013-07-17 08:56:00,
2013-07-17 04:01:00,72.9,65.2,30.27,NNW,337,0.0,0.0,77,-99.99,,,0.00,wxRedirect v1.1,2013-07-17 09:01:00,
2013-07-17 04:06:00,72.7,65.1,30.27,NNW,337,0.0,0.0,77,-99.99,,,0.00,wxRedirect v1.1,2013-07-17 09:06:00,
2013-07-17 04:12:00,72.7,65.1,30.27,NNW,337,0.0,0.0,77,-99.99,,,0.00,wxRedirect v1.1,2013-07-17 09:12:00,
2013-07-17 04:17:00,72.7,65.1,30.27,NNW,337,0.0,0.0,77,-99.99,,,0.00,wxRedirect v1.1,2013-07-17 09:17:00,
2013-07-17 04:22:00,72.7,65.1,30.27,NNW,337,0.0,0.0,77,-99.99,,,0.00,wxRedirect v1.1,2013-07-17 09:22:00,
2013-07-17 04:28:00,72.5,64.9,30.28,NNW,337,0.0,0.0,77,-99.99,,,0.00,wxRedirect v1.1,2013-07-17 09:28:00,
2013-07-17 04:33:00,72.3,64.7,30.28,NNW,337,0.0,0.0,77,-99.99,,,0.00,wxRedirect v1.1,2013-07-17 09:33:00,
2013-07-17 04:38:00,72.3,65.1,30.28,NNW,337,0.0,0.0,78,-99.99,,,0.00,wxRedirect v1.1,2013-07-17 09:38:00,
2013-07-17 04:44:00,72.3,65.1,30.28,NNW,337,0.0,0.0,78,-99.99,,,0.00,wxRedirect v1.1,2013-07-17 09:44:00,
2013-07-17 04:49:00,72.3,65.1,30.28,NNW,337,0.0,0.0,78,-99.99,,,0.00,wxRedirect v1.1,2013-07-17 09:49:00,
2013-07-17 04:54:00,72.1,64.9,30.27,North,-999,-999.0,-999.0,78,-99.99,,,0.00,wxRedirect v1.1,2013-07-17 09:54:00,
2013-07-17 05:00:00,72.1,64.9,30.27,NNW,337,0.0,0.0,78,-99.99,,,0.00,wxRedirect v1.1,2013-07-17 10:00:00,
2013-07-17 05:05:00,72.0,64.7,30.27,NNW,337,0.0,0.0,78,-99.99,,,0.00,wxRedirect v1.1,2013-07-17 10:05:00,
2013-07-17 05:10:00,72.0,64.7,30.27,NNW,337,0.0,0.0,78,-99.99,,,0.00,wxRedirect v1.1,2013-07-17 10:10:00,
2013-07-17 05:16:00,71.8,64.5,30.27,NNW,337,0.0,0.0,78,-99.99,,,0.00,wxRedirect v1.1,2013-07-17 10:16:00,
2013-07-17 05:21:00,71.8,64.5,30.27,NNW,337,0.0,0.0,78,-99.99,,,0.00,wxRedirect v1.1,2013-07-17 10:21:00,
2013-07-17 05:26:00,71.8,64.9,30.28,North,-999,-999.0,-999.0,79,-99.99,,,0.00,wxRedirect v1.1,2013-07-17 10:26:00,
2013-07-17 05:32:00,71.8,64.9,30.27,NNW,337,0.0,0.0,79,-99.99,,,0.00,wxRedirect v1.1,2013-07-17 10:32:00,
2013-07-17 05:37:00,71.8,64.9,30.27,NNW,337,0.0,0.0,79,-99.99,,,0.00,wxRedirect v1.1,2013-07-17 10:37:00,
2013-07-17 05:42:00,71.8,64.9,30.27,NNW,337,0.0,0.0,79,-99.99,,,0.00,wxRedirect v1.1,2013-07-17 10:42:00,
2013-07-17 05:48:00,71.6,64.7,30.28,NNW,337,0.0,0.0,79,-99.99,,,0.00,wxRedirect v1.1,2013-07-17 10:48:00,
2013-07-17 05:53:00,71.4,64.6,30.28,NNW,337,0.0,0.0,79,-99.99,,,0.00,wxRedirect v1.1,2013-07-17 10:53:00,
2013-07-17 05:58:00,71.4,64.6,30.28,NNW,337,0.0,0.0,79,-99.99,,,0.00,wxRedirect v1.1,2013-07-17 10:58:00,
2013-07-17 06:04:00,71.4,64.6,30.28,North,-999,-999.0,-999.0,79,-99.99,,,0.00,wxRedirect v1.1,2013-07-17 11:04:00,
2013-07-17 06:09:00,71.4,64.6,30.28,NNW,337,0.0,0.0,79,-99.99,,,0.00,wxRedirect v1.1,2013-07-17 11:09:00,
2013-07-17 06:14:00,71.4,64.6,30.29,NNW,337,0.0,0.0,79,-99.99,,,0.00,wxRedirect v1.1,2013-07-17 11:14:00,
2013-07-17 06:20:00,71.2,64.4,30.29,NNW,337,0.0,0.0,79,-99.99,,,0.00,wxRedirect v1.1,2013-07-17 11:20:00,
2013-07-17 06:25:00,71.2,64.4,30.29,NNW,337,0.0,0.0,79,-99.99,,,0.00,wxRedirect v1.1,2013-07-17 11:25:00,
2013-07-17 06:30:00,71.2,64.4,30.30,NNW,337,0.0,0.0,79,-99.99,,,0.00,wxRedirect v1.1,2013-07-17 11:30:00,
2013-07-17 06:36:00,71.2,64.8,30.30,NNW,337,0.0,0.0,80,-99.99,,,0.00,wxRedirect v1.1,2013-07-17 11:36:00,
2013-07-17 06:41:00,71.2,64.8,30.30,NNW,337,0.0,0.0,80,-99.99,,,0.00,wxRedirect v1.1,2013-07-17 11:41:00,
2013-07-17 06:46:00,71.2,64.8,30.30,NNW,337,0.0,0.0,80,-99.99,,,0.00,wxRedirect v1.1,2013-07-17 11:46:00,
2013-07-17 06:52:00,71.2,64.6,30.29,NNW,337,0.0,0.0,80,-99.99,,,0.00,wxRedirect v1.1,2013-07-17 11:52:00,
2013-07-17 06:57:00,71.2,64.8,30.30,NNW,337,0.0,0.0,84,-99.99,,,0.00,wxRedirect v1.1,2013-07-17 11:57:00,
2013-07-17 07:02:00,71.2,65.1,30.30,North,0,0.0,0.0,81,-99.99,,,0.00,wxRedirect v1.1,2013-07-17 12:02:00,
2013-07-17 07:08:00,71.2,65.1,30.30,NNW,337,0.0,0.0,81,-99.99,,,0.00,wxRedirect v1.1,2013-07-17 12:08:00,
2013-07-17 07:13:00,71.2,65.1,30.30,NNW,337,0.0,0.0,81,-99.99,,,0.00,wxRedirect v1.1,2013-07-17 12:13:00,
2013-07-17 07:18:00,71.4,65.3,30.30,NNW,337,0.0,0.0,81,-99.99,,,0.00,wxRedirect v1.1,2013-07-17 12:18:00,
2013-07-17 07:24:00,71.4,65.3,30.30,NNW,337,0.0,0.0,81,-99.99,,,0.00,wxRedirect v1.1,2013-07-17 12:24:00,
2013-07-17 07:29:00,71.8,65.6,30.30,NNW,337,0.0,0.0,81,-99.99,,,0.00,wxRedirect v1.1,2013-07-17 12:29:00,
2013-07-17 07:34:00,71.8,65.6,30.30,NNW,337,0.0,0.0,81,-99.99,,,0.00,wxRedirect v1.1,2013-07-17 12:34:00,
2013-07-17 07:40:00,72.1,66.0,30.30,NNW,337,0.0,0.0,81,-99.99,,,0.00,wxRedirect v1.1,2013-07-17 12:40:00,
2013-07-17 07:45:00,72.3,66.2,30.30,North,0,0.0,0.0,81,-99.99,,,0.00,wxRedirect v1.1,2013-07-17 12:45:00,
2013-07-17 07:50:00,72.7,66.5,30.30,East,90,0.0,2.5,81,-99.99,,,0.00,wxRedirect v1.1,2013-07-17 12:50:00,
2013-07-17 07:56:00,73.0,66.9,30.30,ESE,112,0.0,2.5,81,-99.99,,,0.00,wxRedirect v1.1,2013-07-17 12:56:00,
2013-07-17 08:01:00,73.2,67.1,30.31,ESE,112,0.0,2.2,81,-99.99,,,0.00,wxRedirect v1.1,2013-07-17 13:01:00,
2013-07-17 08:06:00,73.4,66.9,30.31,ESE,112,0.0,0.0,84,-99.99,,,0.00,wxRedirect v1.1,2013-07-17 13:06:00,
2013-07-17 08:12:00,73.6,67.1,30.30,East,90,0.0,3.1,80,-99.99,,,0.00,wxRedirect v1.1,2013-07-17 13:12:00,
2013-07-17 08:17:00,73.9,67.5,30.30,East,90,3.6,3.6,80,-99.99,,,0.00,wxRedirect v1.1,2013-07-17 13:17:00,
2013-07-17 08:22:00,74.1,67.6,30.31,North,-999,-999.0,-999.0,84,-99.99,,,0.00,wxRedirect v1.1,2013-07-17 13:22:00,
2013-07-17 08:28:00,74.1,67.2,30.30,ESE,112,0.0,5.4,79,-99.99,,,0.00,wxRedirect v1.1,2013-07-17 13:28:00,
2013-07-17 08:33:00,74.5,67.6,30.30,ESE,112,2.9,5.4,79,-99.99,,,0.00,wxRedirect v1.1,2013-07-17 13:33:00,
2013-07-17 08:38:00,74.8,67.6,30.30,ENE,67,2.2,7.8,78,-99.99,,,0.00,wxRedirect v1.1,2013-07-17 13:38:00,
2013-07-17 08:44:00,75.0,68.1,30.31,ENE,67,0.0,6.5,79,-99.99,,,0.00,wxRedirect v1.1,2013-07-17 13:44:00,
2013-07-17 08:49:00,75.4,68.5,30.31,ENE,67,0.0,5.1,79,-99.99,,,0.00,wxRedirect v1.1,2013-07-17 13:49:00,
2013-07-17 08:54:00,75.9,68.6,30.31,ENE,67,3.4,5.1,78,-99.99,,,0.00,wxRedirect v1.1,2013-07-17 13:54:00,
2013-07-17 09:00:00,76.6,68.9,30.31,ENE,67,0.0,3.4,77,-99.99,,,0.00,wxRedirect v1.1,2013-07-17 14:00:00,
2013-07-17 09:05:00,76.8,69.0,30.31,East,90,1.6,4.9,77,-99.99,,,0.00,wxRedirect v1.1,2013-07-17 14:05:00,
2013-07-17 09:10:00,77.4,69.2,30.31,East,90,0.0,4.9,76,-99.99,,,0.00,wxRedirect v1.1,2013-07-17 14:10:00,
2013-07-17 09:16:00,77.5,69.3,30.32,East,90,0.7,4.9,76,-99.99,,,0.00,wxRedirect v1.1,2013-07-17 14:16:00,
2013-07-17 09:21:00,78.4,69.8,30.32,ESE,112,0.0,2.7,75,-99.99,,,0.00,wxRedirect v1.1,2013-07-17 14:21:00,
2013-07-17 09:26:00,78.8,69.8,30.30,North,-999,-999.0,-999.0,74,-99.99,,,0.00,wxRedirect v1.1,2013-07-17 14:26:00,
2013-07-17 09:32:00,79.3,69.9,30.31,East,90,2.0,5.8,73,-99.99,,,0.00,wxRedirect v1.1,2013-07-17 14:32:00,
2013-07-17 09:37:00,79.5,69.7,30.31,East,90,4.3,5.8,72,-99.99,,,0.00,wxRedirect v1.1,2013-07-17 14:37:00,
2013-07-17 09:42:00,79.9,69.7,30.31,SE,135,0.0,5.1,71,-99.99,,,0.00,wxRedirect v1.1,2013-07-17 14:42:00,
2013-07-17 09:48:00,80.1,69.8,30.31,East,90,0.0,0.7,71,-99.99,,,0.00,wxRedirect v1.1,2013-07-17 14:48:00,
2013-07-17 09:53:00,80.4,70.2,30.31,ENE,67,0.7,6.9,71,-99.99,,,0.00,wxRedirect v1.1,2013-07-17 14:53:00,
2013-07-17 09:58:00,81.1,70.5,30.31,North,-999,-999.0,-999.0,70,-99.99,,,0.00,wxRedirect v1.1,2013-07-17 14:58:00,
2013-07-17 10:04:00,81.7,70.5,30.30,East,90,0.0,7.4,69,-99.99,,,0.00,wxRedirect v1.1,2013-07-17 15:04:00,
2013-07-17 10:09:00,82.2,70.5,30.31,East,90,0.0,4.0,68,-99.99,,,0.00,wxRedirect v1.1,2013-07-17 15:09:00,
2013-07-17 10:14:00,82.8,71.1,30.31,North,-999,-999.0,-999.0,68,-99.99,,,0.00,wxRedirect v1.1,2013-07-17 15:14:00,
2013-07-17 10:20:00,83.1,70.5,30.31,SSE,157,0.0,4.5,66,-99.99,,,0.00,wxRedirect v1.1,2013-07-17 15:20:00,
2013-07-17 10:25:00,83.5,70.9,30.30,South,180,0.0,3.6,66,-99.99,,,0.00,wxRedirect v1.1,2013-07-17 15:25:00,
2013-07-17 10:30:00,84.0,71.0,30.30,North,-999,-999.0,-999.0,65,-99.99,,,0.00,wxRedirect v1.1,2013-07-17 15:30:00,
2013-07-17 10:36:00,84.4,71.3,30.30,North,-999,-999.0,-999.0,65,-99.99,,,0.00,wxRedirect v1.1,2013-07-17 15:36:00,
2013-07-17 10:41:00,84.7,71.2,30.31,SSE,157,0.0,4.5,64,-99.99,,,0.00,wxRedirect v1.1,2013-07-17 15:41:00,
2013-07-17 10:46:00,85.3,71.7,30.31,South,180,0.0,4.5,64,-99.99,,,0.00,wxRedirect v1.1,2013-07-17 15:46:00,
2013-07-17 10:52:00,85.6,71.6,30.31,SSE,157,4.9,6.9,63,-99.99,,,0.00,wxRedirect v1.1,2013-07-17 15:52:00,
2013-07-17 10:57:00,85.8,71.7,30.30,SSE,157,1.8,8.1,63,-99.99,,,0.00,wxRedirect v1.1,2013-07-17 15:57:00,
2013-07-17 11:02:00,86.4,71.8,30.31,South,180,5.6,8.1,63,-99.99,,,0.00,wxRedirect v1.1,2013-07-17 16:02:00,
2013-07-17 11:08:00,86.7,72.2,30.31,SW,225,0.0,5.6,62,-99.99,,,0.00,wxRedirect v1.1,2013-07-17 16:08:00,
2013-07-17 11:13:00,87.1,72.5,30.30,ESE,112,1.1,3.4,62,-99.99,,,0.00,wxRedirect v1.1,2013-07-17 16:13:00,
2013-07-17 11:18:00,87.6,72.6,30.30,SSE,157,1.8,11.0,61,-99.99,,,0.00,wxRedirect v1.1,2013-07-17 16:18:00,
2013-07-17 11:24:00,88.0,72.9,30.30,WSW,247,2.9,8.1,61,-99.99,,,0.00,wxRedirect v1.1,2013-07-17 16:24:00,
2013-07-17 11:29:00,88.5,73.0,30.30,SSE,157,2.2,5.4,60,-99.99,,,0.00,wxRedirect v1.1,2013-07-17 16:29:00,
2013-07-17 11:34:00,88.5,73.0,30.30,North,-999,-999.0,-999.0,60,-99.99,,,0.00,wxRedirect v1.1,2013-07-17 16:34:00,
2013-07-17 11:40:00,88.7,73.1,30.30,SSW,202,0.2,7.8,60,-99.99,,,0.00,wxRedirect v1.1,2013-07-17 16:40:00,
2013-07-17 11:45:00,88.9,72.8,30.30,SSE,157,0.0,8.9,59,-99.99,,,0.00,wxRedirect v1.1,2013-07-17 16:45:00,
2013-07-17 11:50:00,89.2,73.1,30.30,SSE,157,2.9,8.9,59,-99.99,,,0.00,wxRedirect v1.1,2013-07-17 16:50:00,
2013-07-17 11:56:00,89.4,72.7,30.30,SSE,157,0.9,8.1,58,-99.99,,,0.00,wxRedirect v1.1,2013-07-17 16:56:00,
2013-07-17 12:01:00,89.6,72.9,30.30,South,180,4.5,8.1,58,-99.99,,,0.00,wxRedirect v1.1,2013-07-17 17:01:00,
2013-07-17 12:06:00,90.1,73.3,30.30,East,90,0.0,7.4,58,-99.99,,,0.00,wxRedirect v1.1,2013-07-17 17:06:00,
2013-07-17 12:12:00,90.3,73.0,30.30,SE,135,0.0,7.4,57,-99.99,,,0.00,wxRedirect v1.1,2013-07-17 17:12:00,
2013-07-17 12:17:00,90.3,73.5,30.30,SSW,202,0.0,7.8,58,-99.99,,,0.00,wxRedirect v1.1,2013-07-17 17:17:00,
2013-07-17 12:22:00,90.5,73.1,30.30,SSE,157,0.0,8.7,57,-99.99,,,0.00,wxRedirect v1.1,2013-07-17 17:22:00,
2013-07-17 12:28:00,90.3,73.0,30.30,South,180,0.9,8.7,57,-99.99,,,0.00,wxRedirect v1.1,2013-07-17 17:28:00,
2013-07-17 12:33:00,90.3,72.4,30.30,South,180,0.7,9.2,56,-99.99,,,0.00,wxRedirect v1.1,2013-07-17 17:33:00,
2013-07-17 12:38:00,90.0,72.6,30.29,South,180,8.3,9.2,57,-99.99,,,0.00,wxRedirect v1.1,2013-07-17 17:38:00,
2013-07-17 12:44:00,90.1,72.8,30.29,South,180,0.9,9.8,57,-99.99,,,0.00,wxRedirect v1.1,2013-07-17 17:44:00,
2013-07-17 12:49:00,90.0,72.6,30.30,SSE,157,1.8,9.8,57,-99.99,,,0.00,wxRedirect v1.1,2013-07-17 17:49:00,
2013-07-17 12:54:00,89.8,71.9,30.30,SSE,157,0.0,7.2,56,-99.99,,,0.00,wxRedirect v1.1,2013-07-17 17:54:00,
2013-07-17 13:00:00,89.4,71.6,30.29,ESE,112,0.0,0.7,56,-99.99,,,0.00,wxRedirect v1.1,2013-07-17 18:00:00,
2013-07-17 13:05:00,89.8,72.5,30.29,South,180,2.9,4.9,57,-99.99,,,0.00,wxRedirect v1.1,2013-07-17 18:05:00,
2013-07-17 13:10:00,90.1,72.3,30.29,East,90,3.1,4.9,56,-99.99,,,0.00,wxRedirect v1.1,2013-07-17 18:10:00,
2013-07-17 13:16:00,90.3,71.3,30.29,ENE,67,3.1,8.1,54,-99.99,,,0.00,wxRedirect v1.1,2013-07-17 18:16:00,
2013-07-17 13:21:00,95.2,76.4,30.29,ESE,112,0.0,8.1,55,-99.99,,,0.00,wxRedirect v1.1,2013-07-17 18:21:00,
2013-07-17 13:26:00,90.5,71.5,30.28,SSE,157,1.1,5.4,54,-99.99,,,0.00,wxRedirect v1.1,2013-07-17 18:26:00,
2013-07-17 13:32:00,90.7,71.7,30.28,East,90,5.8,8.3,54,-99.99,,,0.00,wxRedirect v1.1,2013-07-17 18:32:00,
2013-07-17 13:37:00,91.0,72.0,30.28,SSW,202,0.0,8.3,54,-99.99,,,0.00,wxRedirect v1.1,2013-07-17 18:37:00,
2013-07-17 13:42:00,91.2,72.7,30.28,SSE,157,4.5,9.8,55,-99.99,,,0.00,wxRedirect v1.1,2013-07-17 18:42:00,
2013-07-17 13:48:00,91.2,72.2,30.27,SSE,157,0.0,4.7,54,-99.99,,,0.00,wxRedirect v1.1,2013-07-17 18:48:00,
2013-07-17 13:53:00,91.2,71.6,30.27,SSE,157,4.0,4.0,53,-99.99,,,0.00,wxRedirect v1.1,2013-07-17 18:53:00,
2013-07-17 13:58:00,91.6,71.9,30.27,North,-999,-999.0,-999.0,53,-99.99,,,0.00,wxRedirect v1.1,2013-07-17 18:58:00,
2013-07-17 14:04:00,91.8,72.1,30.27,ESE,112,2.9,8.3,53,-99.99,,,0.00,wxRedirect v1.1,2013-07-17 19:04:00,
2013-07-17 14:09:00,91.6,71.9,30.27,South,180,0.0,9.4,53,-99.99,,,0.00,wxRedirect v1.1,2013-07-17 19:09:00,
2013-07-17 14:14:00,91.6,71.9,30.27,SSW,202,0.0,8.1,53,-99.99,,,0.00,wxRedirect v1.1,2013-07-17 19:14:00,
2013-07-17 14:20:00,91.6,71.9,30.26,SSE,157,2.5,5.6,57,-99.99,,,0.00,wxRedirect v1.1,2013-07-17 19:20:00,
2013-07-17 14:25:00,91.6,71.9,30.26,ESE,112,0.0,4.7,53,-99.99,,,0.00,wxRedirect v1.1,2013-07-17 19:25:00,
2013-07-17 14:30:00,91.6,71.4,30.26,SSE,157,0.0,7.4,52,-99.99,,,0.00,wxRedirect v1.1,2013-07-17 19:30:00,
2013-07-17 14:36:00,91.2,71.1,30.25,SSE,157,0.0,7.4,52,-99.99,,,0.00,wxRedirect v1.1,2013-07-17 19:36:00,
2013-07-17 14:41:00,91.2,71.6,30.25,ESE,112,1.8,6.5,53,-99.99,,,0.00,wxRedirect v1.1,2013-07-17 19:41:00,
2013-07-17 14:46:00,91.0,71.5,30.25,ESE,112,0.0,6.5,53,-99.99,,,0.00,wxRedirect v1.1,2013-07-17 19:46:00,
2013-07-17 14:52:00,90.7,70.6,30.25,South,180,0.0,4.7,52,-99.99,,,0.00,wxRedirect v1.1,2013-07-17 19:52:00,
2013-07-17 14:57:00,90.3,70.8,30.25,South,180,6.0,7.6,53,-99.99,,,0.00,wxRedirect v1.1,2013-07-17 19:57:00,
2013-07-17 15:02:00,90.5,71.5,30.24,SSW,202,2.7,7.6,54,-99.99,,,0.00,wxRedirect v1.1,2013-07-17 20:02:00,
2013-07-17 15:08:00,90.5,72.1,30.24,North,-999,-999.0,-999.0,55,-99.99,,,0.00,wxRedirect v1.1,2013-07-17 20:08:00,
2013-07-17 15:13:00,90.9,71.8,30.24,SSE,157,7.6,8.5,54,-99.99,,,0.00,wxRedirect v1.1,2013-07-17 20:13:00,
2013-07-17 15:18:00,91.0,72.0,30.23,North,-999,-999.0,-999.0,54,-99.99,,,0.00,wxRedirect v1.1,2013-07-17 20:18:00,
2013-07-17 15:24:00,91.2,72.2,30.23,South,180,6.3,8.5,54,-99.99,,,0.00,wxRedirect v1.1,2013-07-17 20:24:00,
2013-07-17 15:29:00,91.2,71.6,30.23,SSE,157,0.0,9.4,57,-99.99,,,0.00,wxRedirect v1.1,2013-07-17 20:29:00,
2013-07-17 15:34:00,91.2,71.6,30.22,SE,135,0.0,3.4,53,-99.99,,,0.00,wxRedirect v1.1,2013-07-17 20:34:00,
2013-07-17 15:40:00,91.0,73.6,30.23,East,90,0.0,3.8,57,-99.99,,,0.00,wxRedirect v1.1,2013-07-17 20:40:00,
2013-07-17 15:45:00,90.7,70.6,30.23,ESE,112,0.0,6.9,52,-99.99,,,0.00,wxRedirect v1.1,2013-07-17 20:45:00,
2013-07-17 15:50:00,90.5,70.4,30.22,East,90,0.0,3.4,52,-99.99,,,0.00,wxRedirect v1.1,2013-07-17 20:50:00,
2013-07-17 15:56:00,90.7,70.6,30.22,ENE,67,3.6,4.3,52,-99.99,,,0.00,wxRedirect v1.1,2013-07-17 20:56:00,
2013-07-17 16:01:00,90.7,70.6,30.22,ESE,112,2.7,4.7,52,-99.99,,,0.00,wxRedirect v1.1,2013-07-17 21:01:00,
2013-07-17 16:06:00,90.7,70.6,30.22,ESE,112,0.0,4.7,52,-99.99,,,0.00,wxRedirect v1.1,2013-07-17 21:06:00,
2013-07-17 16:12:00,90.7,70.6,30.22,East,90,2.5,7.8,52,-99.99,,,0.00,wxRedirect v1.1,2013-07-17 21:12:00,
2013-07-17 16:17:00,91.0,70.4,30.21,SE,135,0.0,8.1,51,-99.99,,,0.00,wxRedirect v1.1,2013-07-17 21:17:00,
2013-07-17 16:22:00,91.0,70.4,30.21,SSE,157,6.3,11.2,51,-99.99,,,0.00,wxRedirect v1.1,2013-07-17 21:22:00,
2013-07-17 16:28:00,91.2,70.5,30.21,SSE,157,0.0,11.2,51,-99.99,,,0.00,wxRedirect v1.1,2013-07-17 21:28:00,
2013-07-17 16:33:00,91.2,70.5,30.21,South,180,4.0,10.3,51,-99.99,,,0.00,wxRedirect v1.1,2013-07-17 21:33:00,
2013-07-17 16:38:00,91.0,70.4,30.21,SSE,157,1.6,10.3,51,-99.99,,,0.00,wxRedirect v1.1,2013-07-17 21:38:00,
2013-07-17 16:44:00,90.9,70.2,30.22,South,180,4.0,6.9,51,-99.99,,,0.00,wxRedirect v1.1,2013-07-17 21:44:00,
2013-07-17 16:49:00,90.7,69.5,30.21,SSE,157,10.1,10.1,50,-99.99,,,0.00,wxRedirect v1.1,2013-07-17 21:49:00,
2013-07-17 16:54:00,90.3,69.2,30.22,South,180,3.8,10.1,50,-99.99,,,0.00,wxRedirect v1.1,2013-07-17 21:54:00,
2013-07-17 17:00:00,90.1,69.0,30.21,South,180,3.8,9.6,50,-99.99,,,0.00,wxRedirect v1.1,2013-07-17 22:00:00,
2013-07-17 17:05:00,90.1,69.0,30.21,North,-999,-999.0,-999.0,54,-99.99,,,0.00,wxRedirect v1.1,2013-07-17 22:05:00,
2013-07-17 17:10:00,89.8,68.7,30.21,South,180,0.0,11.9,50,-99.99,,,0.00,wxRedirect v1.1,2013-07-17 22:10:00,
2013-07-17 17:16:00,89.6,68.5,30.21,SSE,157,0.0,7.8,50,-99.99,,,0.00,wxRedirect v1.1,2013-07-17 22:16:00,
2013-07-17 17:21:00,89.4,68.4,30.20,SSE,157,0.0,9.2,50,-99.99,,,0.00,wxRedirect v1.1,2013-07-17 22:21:00,
2013-07-17 17:26:00,89.4,68.4,30.20,South,180,4.7,10.3,50,-99.99,,,0.00,wxRedirect v1.1,2013-07-17 22:26:00,
2013-07-17 17:32:00,89.2,68.8,30.20,South,180,3.4,10.3,51,-99.99,,,0.00,wxRedirect v1.1,2013-07-17 22:32:00,
2013-07-17 17:37:00,89.2,68.8,30.20,South,180,3.6,10.1,55,-99.99,,,0.00,wxRedirect v1.1,2013-07-17 22:37:00,
2013-07-17 17:42:00,89.1,68.1,30.21,South,180,6.9,7.6,50,-99.99,,,0.00,wxRedirect v1.1,2013-07-17 22:42:00,
2013-07-17 17:48:00,88.9,68.4,30.21,SSE,157,1.1,7.2,51,-99.99,,,0.00,wxRedirect v1.1,2013-07-17 22:48:00,
2013-07-17 17:53:00,88.9,68.4,30.21,SW,225,1.6,7.2,51,-99.99,,,0.00,wxRedirect v1.1,2013-07-17 22:53:00,
2013-07-17 17:58:00,88.9,68.4,30.21,North,-999,-999.0,-999.0,51,-99.99,,,0.00,wxRedirect v1.1,2013-07-17 22:58:00,
2013-07-17 18:04:00,88.7,68.3,30.20,SSE,157,4.5,6.3,51,-99.99,,,0.00,wxRedirect v1.1,2013-07-17 23:04:00,
2013-07-17 18:09:00,88.7,68.3,30.20,SSE,157,2.2,7.8,51,-99.99,,,0.00,wxRedirect v1.1,2013-07-17 23:09:00,
2013-07-17 18:14:00,88.5,68.6,30.20,SSE,157,1.6,7.8,52,-99.99,,,0.00,wxRedirect v1.1,2013-07-17 23:14:00,
2013-07-17 18:20:00,88.5,68.6,30.20,North,-999,-999.0,-999.0,52,-99.99,,,0.00,wxRedirect v1.1,2013-07-17 23:20:00,
2013-07-17 18:25:00,88.5,68.6,30.20,SSW,202,4.9,6.0,52,-99.99,,,0.00,wxRedirect v1.1,2013-07-17 23:25:00,
2013-07-17 18:30:00,88.5,68.6,30.20,South,180,0.0,4.9,52,-99.99,,,0.00,wxRedirect v1.1,2013-07-17 23:30:00,
2013-07-17 18:36:00,88.3,68.5,30.19,SSE,157,2.7,6.9,52,-99.99,,,0.00,wxRedirect v1.1,2013-07-17 23:36:00,
2013-07-17 18:41:00,88.3,68.5,30.20,South,180,0.0,6.9,52,-99.99,,,0.00,wxRedirect v1.1,2013-07-17 23:41:00,
2013-07-17 18:46:00,88.2,68.3,30.20,South,180,3.1,6.5,52,-99.99,,,0.00,wxRedirect v1.1,2013-07-17 23:46:00,
2013-07-17 18:52:00,88.2,68.3,30.19,South,180,5.6,6.5,52,-99.99,,,0.00,wxRedirect v1.1,2013-07-17 23:52:00,
2013-07-17 18:57:00,88.2,68.3,30.19,SSW,202,0.0,5.8,56,-99.99,,,0.00,wxRedirect v1.1,2013-07-17 23:57:00,
2013-07-17 19:02:00,88.0,70.9,30.19,South,180,7.4,7.4,57,-99.99,,,0.00,wxRedirect v1.1,2013-07-18 00:02:00,
2013-07-17 19:08:00,88.0,68.2,30.19,SSE,157,6.9,7.4,52,-99.99,,,0.00,wxRedirect v1.1,2013-07-18 00:08:00,
2013-07-17 19:13:00,88.0,68.7,30.19,SSE,157,7.4,8.3,53,-99.99,,,0.00,wxRedirect v1.1,2013-07-18 00:13:00,
2013-07-17 19:18:00,87.6,68.4,30.19,North,-999,-999.0,-999.0,53,-99.99,,,0.00,wxRedirect v1.1,2013-07-18 00:18:00,
2013-07-17 19:24:00,87.6,68.4,30.19,South,180,0.0,11.2,57,-99.99,,,0.00,wxRedirect v1.1,2013-07-18 00:24:00,
2013-07-17 19:29:00,87.6,68.4,30.19,South,180,0.0,4.9,57,-99.99,,,0.00,wxRedirect v1.1,2013-07-18 00:29:00,
2013-07-17 19:34:00,87.6,68.9,30.19,South,180,0.0,5.1,54,-99.99,,,0.00,wxRedirect v1.1,2013-07-18 00:34:00,
2013-07-17 19:40:00,87.6,68.9,30.19,South,180,0.0,6.3,54,-99.99,,,0.00,wxRedirect v1.1,2013-07-18 00:40:00,
2013-07-17 19:45:00,92.3,69.7,30.19,SSE,157,5.6,6.3,54,-99.99,,,0.00,wxRedirect v1.1,2013-07-18 00:45:00,
2013-07-17 19:50:00,87.4,68.7,30.19,SSE,157,0.0,5.8,54,-99.99,,,0.00,wxRedirect v1.1,2013-07-18 00:50:00,
2013-07-17 19:56:00,87.4,68.7,30.19,SSE,157,5.4,5.8,54,-99.99,,,0.00,wxRedirect v1.1,2013-07-18 00:56:00,
2013-07-17 20:01:00,87.3,68.6,30.19,SSE,157,2.5,5.4,54,-99.99,,,0.00,wxRedirect v1.1,2013-07-18 01:01:00,
2013-07-17 20:06:00,87.3,68.6,30.19,North,-999,-999.0,-999.0,54,-99.99,,,0.00,wxRedirect v1.1,2013-07-18 01:06:00,
2013-07-17 20:12:00,87.1,68.4,30.19,SSE,157,6.0,6.0,54,-99.99,,,0.00,wxRedirect v1.1,2013-07-18 01:12:00,
2013-07-17 20:17:00,87.1,68.4,30.19,SSE,157,0.0,7.2,54,-99.99,,,0.00,wxRedirect v1.1,2013-07-18 01:17:00,
2013-07-17 20:22:00,87.1,68.9,30.19,SSE,157,3.8,7.2,55,-99.99,,,0.00,wxRedirect v1.1,2013-07-18 01:22:00,
2013-07-17 20:28:00,86.9,68.8,30.19,SSE,157,4.7,5.4,55,-99.99,,,0.00,wxRedirect v1.1,2013-07-18 01:28:00,
2013-07-17 20:33:00,86.7,68.6,30.19,South,180,4.5,5.4,55,-99.99,,,0.00,wxRedirect v1.1,2013-07-18 01:33:00,
2013-07-17 20:38:00,86.5,68.4,30.19,SSE,157,0.4,5.6,55,-99.99,,,0.00,wxRedirect v1.1,2013-07-18 01:38:00,
2013-07-17 20:44:00,86.4,68.3,30.19,South,180,1.3,7.6,55,-99.99,,,0.00,wxRedirect v1.1,2013-07-18 01:44:00,
2013-07-17 20:49:00,86.4,68.8,30.20,South,180,0.0,7.6,56,-99.99,,,0.00,wxRedirect v1.1,2013-07-18 01:49:00,
2013-07-17 20:54:00,86.2,68.6,30.20,South,180,1.6,3.4,56,-99.99,,,0.00,wxRedirect v1.1,2013-07-18 01:54:00,
2013-07-17 21:00:00,86.2,68.6,30.20,South,180,3.1,7.6,56,-99.99,,,0.00,wxRedirect v1.1,2013-07-18 02:00:00,
2013-07-17 21:05:00,85.8,68.3,30.20,South,180,3.1,3.1,56,-99.99,,,0.00,wxRedirect v1.1,2013-07-18 02:05:00,
2013-07-17 21:10:00,85.8,68.3,30.20,SSE,157,3.6,3.6,56,-99.99,,,0.00,wxRedirect v1.1,2013-07-18 02:10:00,
2013-07-17 21:16:00,85.6,68.1,30.20,South,180,3.6,3.6,56,-99.99,,,0.00,wxRedirect v1.1,2013-07-18 02:16:00,
2013-07-17 21:21:00,85.6,68.6,30.20,South,180,0.0,4.5,57,-99.99,,,0.00,wxRedirect v1.1,2013-07-18 02:21:00,
2013-07-17 21:26:00,85.3,68.3,30.20,South,180,2.0,4.5,57,-99.99,,,0.00,wxRedirect v1.1,2013-07-18 02:26:00,
2013-07-17 21:32:00,85.1,68.1,30.20,South,180,2.7,4.5,57,-99.99,,,0.00,wxRedirect v1.1,2013-07-18 02:32:00,
2013-07-17 21:37:00,84.9,68.0,30.20,SSE,157,2.5,6.7,57,-99.99,,,0.00,wxRedirect v1.1,2013-07-18 02:37:00,
2013-07-17 21:42:00,84.7,67.8,30.21,SSE,157,3.8,6.7,57,-99.99,,,0.00,wxRedirect v1.1,2013-07-18 02:42:00,
2013-07-17 21:48:00,84.6,68.2,30.21,South,180,4.9,8.3,58,-99.99,,,0.00,wxRedirect v1.1,2013-07-18 02:48:00,
2013-07-17 21:53:00,84.4,68.0,30.21,South,180,0.0,5.4,58,-99.99,,,0.00,wxRedirect v1.1,2013-07-18 02:53:00,
2013-07-17 21:58:00,84.2,67.9,30.21,South,180,2.5,3.6,58,-99.99,,,0.00,wxRedirect v1.1,2013-07-18 02:58:00,
2013-07-17 22:04:00,84.0,67.7,30.21,South,180,0.0,4.9,58,-99.99,,,0.00,wxRedirect v1.1,2013-07-18 03:04:00,
2013-07-17 22:09:00,84.0,67.7,30.21,North,-999,-999.0,-999.0,58,-99.99,,,0.00,wxRedirect v1.1,2013-07-18 03:09:00,
2013-07-17 22:14:00,83.8,67.5,30.21,SSE,157,3.6,5.4,58,-99.99,,,0.00,wxRedirect v1.1,2013-07-18 03:14:00,
2013-07-17 22:20:00,83.5,67.7,30.21,South,180,0.0,5.4,59,-99.99,,,0.00,wxRedirect v1.1,2013-07-18 03:20:00,
2013-07-17 22:25:00,83.5,67.7,30.21,North,-999,-999.0,-999.0,59,-99.99,,,0.00,wxRedirect v1.1,2013-07-18 03:25:00,
2013-07-17 22:30:00,83.3,67.5,30.21,SSE,157,0.0,4.9,59,-99.99,,,0.00,wxRedirect v1.1,2013-07-18 03:30:00,
2013-07-17 22:36:00,83.1,67.3,30.22,SSW,202,0.0,4.3,59,-99.99,,,0.00,wxRedirect v1.1,2013-07-18 03:36:00,
2013-07-17 22:41:00,83.1,67.8,30.22,South,180,2.9,4.3,60,-99.99,,,0.00,wxRedirect v1.1,2013-07-18 03:41:00,
2013-07-17 22:46:00,82.8,67.6,30.22,SSW,202,2.9,4.9,60,-99.99,,,0.00,wxRedirect v1.1,2013-07-18 03:46:00,
2013-07-17 22:52:00,82.6,67.7,30.22,SSW,202,8.1,8.1,61,-99.99,,,0.00,wxRedirect v1.1,2013-07-18 03:52:00,
2013-07-17 22:57:00,82.6,67.7,30.22,South,180,0.7,8.1,61,-99.99,,,0.00,wxRedirect v1.1,2013-07-18 03:57:00,
2013-07-17 23:01:00,82.2,67.4,30.22,South,180,0.0,8.1,61,-99.99,,,0.00,wxRedirect v1.1,2013-07-18 04:01:00,
2013-07-17 23:02:00,82.2,67.4,30.22,SW,225,3.1,5.8,61,-99.99,,,0.00,wxRedirect v1.1,2013-07-18 04:02:00,
2013-07-17 23:04:00,82.2,67.4,30.22,WSW,247,4.3,5.8,61,-99.99,,,0.00,wxRedirect v1.1,2013-07-18 04:04:00,
2013-07-17 23:07:00,82.2,67.4,30.22,WSW,247,0.0,5.8,61,-99.99,,,0.00,wxRedirect v1.1,2013-07-18 04:07:00,
2013-07-17 23:13:00,82.0,67.7,30.22,South,180,4.7,4.7,62,-99.99,,,0.00,wxRedirect v1.1,2013-07-18 04:13:00,
2013-07-17 23:18:00,81.9,67.5,30.22,WSW,247,1.3,4.7,62,-99.99,,,0.00,wxRedirect v1.1,2013-07-18 04:18:00,
2013-07-17 23:23:00,81.7,67.4,30.22,SW,225,3.1,5.6,62,-99.99,,,0.00,wxRedirect v1.1,2013-07-18 04:23:00,
2013-07-17 23:28:00,81.5,67.6,30.22,SSW,202,1.8,5.6,63,-99.99,,,0.00,wxRedirect v1.1,2013-07-18 04:28:00,
2013-07-17 23:34:00,81.3,67.5,30.22,SSW,202,1.8,3.1,63,-99.99,,,0.00,wxRedirect v1.1,2013-07-18 04:34:00,
2013-07-17 23:39:00,81.1,67.3,30.22,SSW,202,0.0,4.0,63,-99.99,,,0.00,wxRedirect v1.1,2013-07-18 04:39:00,
2013-07-17 23:44:00,81.1,67.8,30.22,SSW,202,3.1,4.0,64,-99.99,,,0.00,wxRedirect v1.1,2013-07-18 04:44:00,
2013-07-17 23:50:00,80.8,67.4,30.22,SSW,202,0.0,4.0,64,-99.99,,,0.00,wxRedirect v1.1,2013-07-18 04:50:00,
2013-07-17 23:55:00,80.8,67.4,30.22,SW,225,0.0,6.3,64,-99.99,,,0.00,wxRedirect v1.1,2013-07-18 04:55:00,